Flag for China Weather past 2 weeks in Nanjing, Jiangsu, China

Now
32 °F

Clear.


Feels Like: 32 °F
Forecast: 22 / 37 °F
Wind: 1 mph from Northeast

Location: Nanjing

Current Time: Jan 31, 2015 at 5:42:44 AM

Latest Report: Jan 31, 2015 at 5:00 AM


Visibility: 10 mi

Pressure: 30.57 "Hg

Humidity: 69%

Dew point: 23 °F

Location of NanjingLocation

Historic Weather in Nanjing — Graph

°F

Nanjing temperature yesterday

Maximum temperature yesterday: 39 °F (at 2:00 PM)
Minimum temperature yesterday: 32 °F (at 12:00 AM)
Average temperature yesterday: 34 °F

Past Weeks' High & Low Weather Summary

 TemperatureHumidityPressure
High59 °F (Jan 24, 2:00 PM)100% (Jan 16, 4:00 AM)30.63 "Hg (Jan 16, 4:00 AM)
Low25 °F (Jan 23, 5:00 AM)18% (Jan 19, 3:00 PM)30.07 "Hg (Jan 24, 2:00 PM)
Average40 °F78%30.31 "Hg
* Reported Jan 16 4:00 AM — Jan 31 4:00 AM, Nanjing, Weather by CustomWeather, © 2014

Note: Actual official high and low records may vary slightly from our data, if they occured in-between our weather recording intervals... More about our weather records

Advertising

Nanjing weather history for previous 24 hours

 ConditionsComfort  
Time TempWeatherWind HumidityBarometerVisibility
4:00 AM
Jan 31
30 °FClear.1 mph86%30.60 "Hg10 mi
3:00 AM32 °FClear.1 mph80%30.60 "Hg5 mi
2:00 AM34 °FClear.1 mph65%30.63 "Hg5 mi
1:00 AM34 °FClear.3 mph65%30.60 "Hg4 mi
12:00 AM34 °FClear.1 mph65%30.60 "Hg4 mi
11:00 PM
Jan 30
34 °FHaze.1 mph70%30.60 "Hg2 mi
10:00 PM34 °FFog.1 mph81%30.60 "Hg1 mi
9:00 PM34 °FFog.1 mph93%30.57 "Hg1 mi
8:00 PM34 °FFog.1 mph87%30.57 "Hg1 mi
7:00 PM34 °FFog.1 mph87%30.54 "Hg1 mi
6:00 PM36 °FFog.1 mph75%30.51 "Hg1 mi
5:00 PM37 °FScattered clouds.3 mph70%30.51 "Hg1 mi
4:00 PM37 °FScattered clouds.3 mph70%30.51 "Hg1 mi
3:00 PM39 °FPartly sunny.3 mph61%30.48 "Hg2 mi
2:00 PM39 °FPartly sunny.3 mph61%30.48 "Hg2 mi
1:00 PM37 °FPartly sunny.3 mph70%30.51 "Hg2 mi
12:00 PM37 °FFog.6 mph70%30.51 "Hg2 mi
11:00 AM36 °FFog.6 mph75%30.54 "Hg2 mi
10:00 AM34 °FFog.3 mph81%30.54 "Hg1 mi
9:00 AM32 °FIce fog.1 mph93%30.54 "Hg1 mi
8:00 AM32 °FIce fog.1 mph93%30.51 "Hg1 mi
7:00 AM32 °FIce fog.1 mph87%30.48 "Hg1 mi
6:00 AM32 °FIce fog.3 mph93%30.48 "Hg2 mi
5:00 AM32 °FIce fog.3 mph93%30.45 "Hg2 mi
Weather by CustomWeather, © 2014

See weather overviewHow to use our weather pages